TimeEST,TemperatureF,Dew PointF,Humidity,Sea Level PressureIn,VisibilityMPH,Wind Direction,Wind SpeedMPH,Gust SpeedMPH,PrecipitationIn,Events,Conditions,WindDirDegrees,DateUTC
12:53 AM,45.0,39.0,80,30.11,10.0,NW,3.5,-,N/A,,Scattered Clouds,320,2013-11-03 04:53:00
1:53 AM,46.0,39.9,79,30.12,10.0,West,4.6,-,N/A,,Overcast,260,2013-11-03 05:53:00
1:53 AM,46.0,39.0,76,30.13,10.0,Calm,Calm,-,N/A,,Overcast,0,2013-11-03 06:53:00
2:53 AM,46.0,36.0,68,30.13,10.0,Calm,Calm,-,N/A,,Overcast,0,2013-11-03 07:53:00
3:53 AM,44.1,34.0,68,30.15,10.0,Calm,Calm,-,N/A,,Scattered Clouds,0,2013-11-03 08:53:00
4:53 AM,37.9,33.1,83,30.18,10.0,Calm,Calm,-,N/A,,Clear,0,2013-11-03 09:53:00
5:53 AM,37.9,34.0,86,30.21,10.0,Calm,Calm,-,N/A,,Clear,0,2013-11-03 10:53:00
6:53 AM,37.9,34.0,86,30.23,8.0,Calm,Calm,-,N/A,,Partly Cloudy,0,2013-11-03 11:53:00
7:53 AM,37.9,35.1,89,30.26,5.0,Calm,Calm,-,N/A,,Overcast,0,2013-11-03 12:53:00
8:53 AM,41.0,37.0,86,30.30,7.0,Calm,Calm,-,N/A,,Mostly Cloudy,0,2013-11-03 13:53:00
9:53 AM,46.0,37.9,73,30.31,10.0,East,3.5,-,N/A,,Clear,80,2013-11-03 14:53:00
10:29 AM,48.2,39.2,71,30.30,10.0,ESE,6.9,-,N/A,,Mostly Cloudy,110,2013-11-03 15:29:00
10:53 AM,48.9,37.0,64,30.32,10.0,Calm,Calm,-,N/A,,Mostly Cloudy,0,2013-11-03 15:53:00
11:51 AM,48.2,35.6,62,30.32,10.0,ENE,5.8,-,N/A,,Mostly Cloudy,70,2013-11-03 16:51:00
11:53 AM,48.9,36.0,61,30.33,10.0,East,4.6,-,N/A,,Mostly Cloudy,80,2013-11-03 16:53:00
12:53 PM,53.1,36.0,52,30.31,10.0,NNE,5.8,-,N/A,,Partly Cloudy,20,2013-11-03 17:53:00
1:53 PM,52.0,34.0,50,30.28,10.0,NNE,3.5,-,N/A,,Overcast,20,2013-11-03 18:53:00
2:53 PM,55.0,33.1,43,30.27,10.0,Calm,Calm,-,N/A,,Mostly Cloudy,0,2013-11-03 19:53:00
3:53 PM,55.0,33.1,43,30.27,10.0,SE,5.8,-,N/A,,Scattered Clouds,140,2013-11-03 20:53:00
4:53 PM,53.1,34.0,48,30.29,10.0,ENE,3.5,-,N/A,,Clear,60,2013-11-03 21:53:00
5:53 PM,48.9,34.0,56,30.30,10.0,Calm,Calm,-,N/A,,Clear,0,2013-11-03 22:53:00
6:53 PM,45.0,35.1,68,30.30,10.0,Calm,Calm,-,N/A,,Clear,0,2013-11-03 23:53:00
7:53 PM,44.1,35.1,71,30.32,10.0,Calm,Calm,-,N/A,,Clear,0,2013-11-04 00:53:00
8:53 PM,44.1,33.1,65,30.30,10.0,East,4.6,-,N/A,,Clear,80,2013-11-04 01:53:00
9:53 PM,45.0,33.1,63,30.32,10.0,Calm,Calm,-,N/A,,Clear,0,2013-11-04 02:53:00
10:53 PM,39.9,33.1,77,30.34,10.0,Calm,Calm,-,N/A,,Clear,0,2013-11-04 03:53:00